Location: Ecklingerode
(51.5036°N, 10.3122°E)
Time: 01:33:16
(UTC+00:00)

Helios 1A Rocket - Pass Details

Date: 29 October 2020
Orbit: 562 x 587 km, 98.3° (Epoch: 23 November)

Event Time Altitude Azimuth Distance (km) Brightness Sun altitude
Rises 17:13:53 0° 154° (SSE) 2,795 6.2 -12.5°
Reaches altitude 10° 17:16:03 10° 151° (SSE) 1,896 5.3 -12.8°
Maximum altitude 17:20:06 61° 71° (ENE) 661 2.9 -13.5°
Drops below altitude 10° 17:24:09 10° 351° (N) 1,897 5.6 -14.1°
Sets 17:26:19 0° 348° (NNW) 2,796 6.5 -14.4°
